Theta_e
306 312 316 320 319 319 320 327 332 335 343 342 339 338 339 340 340 342 344 346 345 345 345 346 343 340 338 337 336 332 332 332 332 330 329 330 333 334 336 338 336 337 338
302 310 314 316 315 317 317 320 328 335 336 341 340 337 337 338 339 340 341 344 348 347 345 343 342 342 340 337 335 333 330 332 334 327 327 324 328 329 335 336 339 339 338
301 306 312 312 312 316 318 320 322 329 335 336 337 336 338 337 336 336 336 338 342 345 348 346 345 341 341 339 334 333 332 329 333 334 329 324 321 327 330 335 339 339 338
302 304 309 309 312 315 318 320 322 324 324 326 333 331 330 331 333 333 334 336 340 340 340 342 345 344 341 339 335 334 335 335 332 334 336 333 333 326 322 330 333 337 339
303 302 307 310 310 316 314 315 316 317 318 320 324 330 332 331 331 334 336 334 336 338 339 340 342 342 340 340 336 335 335 337 335 335 335 333 328 325 321 317 321 329 339
299 303 306 309 311 310 310 311 312 313 315 318 321 324 325 326 328 331 330 333 334 334 337 341 340 341 339 337 338 338 336 336 340 340 336 329 322 321 322 319 321 326 333
301 304 307 308 310 309 308 310 311 312 313 315 316 318 323 325 324 326 329 328 329 330 334 335 340 340 340 339 338 338 338 339 336 333 330 328 325 325 324 323 325 328 329
303 305 305 307 309 308 309 312 310 310 311 313 314 315 315 317 320 321 322 327 328 330 331 332 333 337 339 339 338 337 338 330 328 326 325 324 324 326 328 328 328 325 322
301 303 303 304 304 304 307 309 309 310 312 313 312 312 314 313 315 318 320 321 322 328 332 331 331 332 335 332 331 331 331 331 329 329 328 327 327 325 327 331 332 328 323
299 301 302 302 303 304 304 305 308 308 306 306 307 309 310 313 314 314 315 318 320 321 323 330 332 334 336 334 331 329 329 329 329 329 328 329 332 335 334 335 336 332 328
302 301 301 302 303 304 304 305 304 305 305 305 305 305 308 311 313 314 315 317 319 321 323 327 328 332 333 335 334 334 333 331 331 333 331 330 330 338 341 339 334 329 324
303 301 302 305 303 302 305 306 308 309 308 308 308 308 309 310 309 311 314 317 319 320 322 323 326 330 332 333 335 335 337 334 333 334 336 336 341 339 339 336 331 328 326
304 302 302 303 304 303 302 305 306 306 308 309 308 308 308 309 310 312 314 316 317 318 319 323 325 327 328 330 333 337 338 336 337 337 339 343 343 342 338 333 330 327 328
305 305 305 305 306 305 305 305 304 303 305 305 304 303 304 307 310 312 312 314 317 317 317 319 321 323 325 327 330 335 338 342 342 344 345 344 342 341 337 333 329 327 325
303 304 305 306 306 306 306 306 305 305 305 305 305 305 306 309 311 314 315 318 319 320 320 320 320 320 322 324 325 331 337 338 342 344 345 344 339 333 333 334 328 327 323
302 303 305 305 304 304 305 304 304 304 305 306 306 308 308 309 309 310 311 313 315 318 320 320 320 320 324 315 312 318 330 338 341 340 340 342 328 327 319 322 321 327 324
300 301 300 300 301 302 304 303 304 306 306 305 306 308 308 308 307 309 311 310 311 313 316 317 318 318 319 310 308 311 323 330 339 339 337 335 338 329 331 317 316 316 314
297 297 298 299 299 300 302 303 304 304 305 305 306 307 307 307 307 307 308 309 309 310 311 314 316 318 320 309 306 309 321 326 336 337 336 333 328 329 328 325 324 324 323
298 299 300 300 301 301 302 302 303 304 304 305 305 306 307 306 306 305 306 308 308 309 311 314 316 317 321 310 307 310 322 327 334 336 333 330 328 310 308 325 322 320 319
299 299 299 299 300 302 302 301 301 302 302 304 304 306 306 306 305 305 305 307 308 309 312 314 316 315 320 311 306 309 322 327 330 331 329 314 325 304 306 324 322 318 318
297 298 298 297 299 301 302 300 301 301 304 305 305 305 306 305 305 305 307 307 306 310 312 313 314 318 319 321 306 301 320 330 329 329 329 327 305 302 302 311 324 319 317
296 298 297 297 299 300 301 300 300 303 304 305 305 305 305 305 306 306 307 308 308 309 310 311 313 317 320 310 308 300 302 316 329 328 328 322 303 300 302 310 303 300 310
294 296 296 296 297 299 299 298 300 301 302 302 303 304 305 306 306 305 305 306 308 309 310 311 313 315 320 319 304 298 299 305 327 326 313 301 297 298 301 300 298 302 321
292 294 293 293 295 297 299 300 301 302 303 302 303 304 305 306 307 308 307 307 308 308 310 312 313 315 318 318 314 314 311 305 311 305 306 305 307 305 306 307 305 322 323
291 291 291 292 292 295 297 300 301 302 302 303 303 304 305 305 306 306 308 309 310 310 311 313 315 315 317 319 311 314 321 319 313 313 319 318 316 316 316 316 318 320 321
290 290 291 291 292 294 295 298 301 302 301 301 302 304 305 304 305 305 305 296 300 298 296 296 304 315 306 303 302 300 302 302 304 319 318 317 315 315 315 316 316 318 317
Wind_Speed
7 7 7 8 9 8 8 6 6 2 4 3 3 2 4 1 0 4 10 12 11 13 9 7 5 4 5 5 5 2 4 3 1 3 4 4 7 7 7 5 4 7 8
5 7 10 8 7 9 10 8 8 4 1 3 2 2 1 1 2 3 3 9 10 8 12 8 6 6 4 5 5 4 1 2 3 2 1 4 3 2 2 0 3 9 5
10 6 12 11 10 10 9 9 9 8 4 2 2 2 2 1 0 3 5 6 12 9 8 11 9 7 6 6 5 5 7 4 3 6 4 2 3 5 1 4 3 10 5
8 10 14 9 14 11 8 9 9 9 5 5 2 3 4 3 1 2 3 4 7 10 10 7 8 7 7 6 5 4 5 4 5 2 6 3 4 0 7 3 5 12 12
18 15 13 16 6 9 9 8 8 8 6 5 4 3 3 3 1 2 4 3 5 6 7 9 9 9 9 7 6 6 6 5 5 5 4 0 1 3 3 3 6 7 11
10 9 11 9 7 7 8 8 9 5 6 5 3 4 4 4 3 2 3 3 2 3 5 7 8 8 5 9 9 10 10 11 9 7 6 6 5 4 2 1 5 8 11
13 14 18 16 12 10 9 8 8 6 6 6 4 4 5 5 5 4 3 3 3 3 6 6 6 7 10 7 7 9 10 10 10 7 5 4 6 3 4 4 8 5 4
12 15 16 15 14 12 10 8 8 7 7 7 7 7 6 4 4 4 3 4 3 4 6 7 8 5 3 6 10 7 8 6 8 7 6 5 5 4 5 4 4 7 5
10 14 12 12 11 11 11 11 9 8 9 10 7 7 7 7 7 8 5 5 6 5 6 7 8 7 9 7 7 7 10 11 12 11 11 7 6 5 5 6 7 9 8
4 4 6 8 8 10 9 10 12 13 10 9 8 7 7 7 7 5 7 7 6 6 7 6 8 7 9 10 11 10 11 12 8 10 12 8 6 7 8 8 9 9 8
11 10 9 6 7 8 9 11 9 9 8 7 7 7 7 8 7 6 7 7 7 7 7 8 7 8 9 10 10 11 10 9 10 13 10 11 6 5 5 6 6 6 5
4 4 4 7 7 7 9 10 8 8 9 8 7 7 6 7 7 7 9 8 8 7 7 7 6 6 7 6 8 9 10 12 15 15 10 12 5 7 7 8 6 4 5
14 7 5 4 2 7 5 8 11 11 9 8 8 6 5 6 6 7 8 8 8 8 7 6 6 7 7 7 7 10 13 13 16 12 11 13 10 10 6 5 5 4 3
11 13 13 8 3 3 6 4 8 4 7 7 8 7 7 6 5 6 7 7 8 8 7 6 6 7 7 8 10 12 14 13 15 12 13 14 11 11 9 7 6 5 4
11 14 12 19 6 7 2 2 4 3 4 5 5 6 4 4 4 4 5 7 7 9 8 7 7 7 7 8 11 11 11 14 12 13 15 12 11 13 10 6 6 6 4
7 7 8 7 4 4 3 3 4 4 1 3 4 4 4 3 4 4 4 4 6 8 10 8 7 7 7 12 15 12 11 12 12 14 10 9 10 11 13 13 12 12 9
10 6 6 6 6 6 7 7 7 6 6 6 6 6 6 6 6 6 6 6 6 7 11 12 8 8 8 12 15 17 10 11 13 13 10 6 7 9 8 7 10 10 11
6 7 7 10 9 7 9 8 8 9 9 9 9 9 8 9 8 7 9 9 7 8 9 10 10 10 9 12 15 17 12 10 14 11 9 10 9 8 11 9 7 6 6
14 14 13 15 16 18 17 15 15 13 12 14 13 12 12 12 10 11 10 10 11 11 10 8 9 9 10 12 15 15 7 10 12 9 9 11 10 11 13 11 9 6 2
15 18 20 20 21 21 18 18 18 15 16 15 13 11 12 13 13 11 12 13 12 13 10 9 8 9 10 12 16 12 7 8 5 6 7 13 14 18 14 11 10 8 6
27 26 23 20 22 19 18 19 18 20 17 15 14 14 14 13 13 13 11 10 8 11 9 7 7 7 8 9 13 13 7 7 6 7 6 6 12 18 13 11 11 9 8
25 27 23 21 22 21 18 17 16 14 14 14 14 14 14 12 13 16 12 11 9 9 9 7 5 5 6 9 12 13 16 10 9 8 9 8 16 15 12 10 11 14 10
22 22 22 21 21 21 20 22 21 19 17 16 16 16 16 15 14 11 9 8 11 10 8 4 4 4 4 6 9 8 12 14 7 7 9 13 14 13 8 10 13 13 7
24 21 21 22 23 21 22 21 17 15 15 17 14 13 14 12 10 8 6 7 8 7 5 4 4 4 4 4 4 3 4 9 10 13 9 9 10 7 9 6 5 6 7
23 20 21 21 22 21 20 19 20 20 17 15 14 13 11 11 10 7 8 8 7 7 5 4 4 4 6 7 9 9 9 9 13 13 7 7 5 5 4 3 4 5 6
23 22 23 21 23 21 19 17 18 16 14 14 11 10 8 7 6 6 6 4 9 9 7 7 6 5 9 11 16 12 13 19 20 9 9 7 6 7 6 6 4 4 6
Wind_Direction
204 166 136 122 123 129 124 121 118 111 130 133 145 173 210 182 303 195 190 180 185 183 195 215 200 183 199 185 214 193 222 274 162 334 314 270 242 253 251 273 270 260 254
220 163 143 149 161 153 139 133 134 131 99 125 141 154 168 210 172 162 204 153 172 193 193 195 204 183 219 178 213 185 196 241 195 212 275 298 316 336 323 321 306 273 261
211 214 170 170 156 159 159 144 144 138 131 149 119 53 38 41 87 237 203 222 154 181 199 204 205 171 198 217 182 177 198 226 240 212 195 279 282 328 156 27 350 306 280
212 187 189 179 174 177 150 139 140 137 135 134 158 203 180 184 202 257 268 201 192 181 165 215 218 174 208 212 196 185 220 185 217 243 243 237 138 266 326 71 321 325 280
221 190 195 181 175 145 149 137 132 132 133 135 159 175 201 234 212 279 314 302 290 206 157 187 214 210 188 198 182 193 207 213 219 186 216 338 164 174 150 290 296 306 284
210 182 159 132 140 140 142 146 144 144 137 153 171 174 197 258 241 223 233 250 248 313 305 205 205 186 194 187 205 209 204 223 228 198 191 168 188 202 173 337 272 248 278
171 155 152 158 159 163 160 146 146 161 171 160 173 205 219 214 233 213 187 228 264 254 254 279 226 206 184 199 206 224 237 232 220 200 184 208 220 176 158 172 263 277 271
140 142 149 154 162 163 157 155 166 162 175 179 201 205 202 210 228 237 250 238 247 234 239 234 243 260 222 187 197 189 222 234 245 246 233 223 205 204 173 196 230 279 275
160 162 159 157 158 159 167 170 169 186 187 192 185 199 204 202 208 215 208 218 228 237 242 240 241 245 245 197 185 209 220 229 235 236 245 213 199 199 192 198 216 234 266
11 163 159 168 179 173 171 167 173 182 191 191 193 200 210 216 225 230 232 225 233 230 231 216 228 226 221 223 210 223 230 233 249 253 241 221 215 198 193 203 218 220 239
17 13 349 312 208 176 168 181 185 192 204 202 210 205 216 217 223 221 232 231 233 231 227 221 215 217 217 211 209 219 232 236 244 252 242 248 230 226 191 205 204 205 179
26 351 1 3 348 284 185 191 191 192 207 204 203 219 233 238 232 243 242 226 231 240 239 239 229 232 245 236 232 236 236 236 245 243 240 251 231 229 211 208 200 186 169
301 282 262 295 297 257 281 199 185 190 179 167 169 181 215 242 247 240 235 241 235 234 232 227 228 228 238 247 252 258 257 242 250 244 240 243 234 230 217 189 194 192 169
276 303 300 291 263 267 210 232 288 219 190 182 177 184 197 226 250 273 263 242 242 249 248 246 236 239 249 259 266 258 257 243 243 243 238 232 222 217 208 194 188 169 162
220 236 261 272 305 289 320 238 207 191 183 174 170 194 201 227 223 237 276 289 278 264 243 234 235 235 242 253 254 252 250 256 251 242 238 231 223 207 195 172 165 162 172
281 259 242 252 199 223 249 263 283 283 251 239 248 258 237 256 284 294 284 280 274 276 269 257 238 240 248 258 253 249 257 254 243 252 240 226 217 215 180 179 162 171 171
272 295 306 284 272 254 230 220 226 226 215 218 228 230 227 232 242 252 260 269 268 270 268 263 245 249 240 250 256 259 255 252 242 234 226 205 205 192 170 192 176 174 182
279 272 272 278 269 242 239 239 214 214 213 218 220 217 215 225 225 231 242 251 256 259 261 258 258 258 261 247 254 258 261 250 246 227 209 196 182 166 156 154 155 154 174
287 282 280 279 276 269 268 258 245 226 216 224 222 224 224 220 220 229 233 237 247 254 253 247 251 254 263 250 256 259 248 250 245 217 170 177 163 162 151 144 140 135 148
272 275 276 275 264 259 256 243 240 230 226 231 235 229 217 223 224 229 247 246 233 240 240 243 230 246 259 258 256 251 235 248 212 192 172 166 156 162 161 149 149 150 202
283 279 275 268 265 266 256 245 240 237 234 231 233 232 226 222 225 232 233 231 223 234 231 238 246 244 241 262 259 234 228 230 199 173 155 170 167 166 175 157 156 177 150
280 275 269 262 261 258 255 245 239 239 235 231 229 229 230 231 238 233 228 229 219 228 233 221 239 240 254 247 264 241 219 212 190 178 164 166 170 166 170 165 156 143 136
280 270 266 259 253 251 240 241 245 243 244 243 235 233 235 234 232 226 212 214 223 226 224 191 208 256 246 259 248 270 236 210 166 157 136 133 136 136 130 141 147 151 153
283 275 267 260 254 244 240 234 231 236 231 229 224 224 225 220 220 215 205 212 220 222 209 187 214 223 242 247 243 229 167 129 105 101 112 123 117 98 108 105 143 164 164
280 272 263 255 247 244 243 232 225 226 216 217 220 219 217 218 217 215 217 218 216 197 197 192 182 218 251 229 203 191 188 151 136 130 121 110 104 115 113 115 147 140 145
285 279 270 254 243 233 227 230 220 209 208 214 211 214 200 195 198 207 220 245 200 195 215 222 208 243 267 212 198 209 197 140 149 125 132 130 136 136 149 154 141 143 146